Time,TemperatureF,DewpointF,PressureIn,WindDirection,WindDirectionDegrees,WindSpeedMPH,WindSpeedGustMPH,Humidity,HourlyPrecipIn,Conditions,Clouds,dailyrainin,SolarRadiationWatts/m^2,SoftwareType,DateUTC
2013-01-13 00:00:00,65.7,63.5,30.10,SE,136,0.0,1.0,93,0.00,,,0.00,0.0,meteohub,2013-01-13 05:00:00,
2013-01-13 00:01:00,65.5,63.3,30.10,SE,136,0.0,1.0,93,0.00,,,0.00,0.0,meteohub,2013-01-13 05:01:00,
2013-01-13 00:02:00,65.5,63.3,30.10,SE,136,0.0,1.0,93,0.00,,,0.00,0.0,meteohub,2013-01-13 05:02:00,
2013-01-13 00:03:00,65.5,63.3,30.10,SE,136,0.0,1.0,93,0.00,,,0.00,0.0,meteohub,2013-01-13 05:03:00,
2013-01-13 00:08:00,65.3,63.5,30.10,SE,136,0.0,1.0,94,0.00,,,0.00,0.0,meteohub,2013-01-13 05:08:00,
2013-01-13 00:13:00,64.6,62.4,30.10,SE,136,0.0,1.0,93,0.00,,,0.00,0.0,meteohub,2013-01-13 05:13:00,
2013-01-13 00:18:00,64.0,62.2,30.10,SE,136,1.0,1.0,94,0.00,,,0.00,0.0,meteohub,2013-01-13 05:18:00,
2013-01-13 00:23:00,63.9,62.1,30.10,SE,136,0.0,1.0,94,0.00,,,0.00,0.0,meteohub,2013-01-13 05:23:00,
2013-01-13 00:28:00,63.9,62.4,30.10,SE,136,0.0,1.0,95,0.00,,,0.00,0.0,meteohub,2013-01-13 05:28:00,
2013-01-13 00:33:00,63.9,62.4,30.09,SE,136,0.0,1.0,95,0.00,,,0.00,0.0,meteohub,2013-01-13 05:33:00,
2013-01-13 00:38:00,63.9,62.4,30.09,SE,136,0.0,1.0,95,0.00,,,0.00,0.0,meteohub,2013-01-13 05:38:00,
2013-01-13 00:43:00,63.5,62.1,30.10,SE,136,0.0,0.0,95,0.00,,,0.00,0.0,meteohub,2013-01-13 05:43:00,
2013-01-13 00:48:00,63.3,61.9,30.10,SE,136,0.0,0.0,95,0.00,,,0.00,0.0,meteohub,2013-01-13 05:48:00,
2013-01-13 00:53:00,63.3,62.2,30.10,SE,136,0.0,0.0,96,0.00,,,0.00,0.0,meteohub,2013-01-13 05:53:00,
2013-01-13 00:58:00,63.1,62.1,30.10,SE,136,0.0,0.0,96,0.00,,,0.00,0.0,meteohub,2013-01-13 05:58:00,
2013-01-13 01:03:00,63.1,62.1,30.10,SE,136,0.0,0.0,96,0.00,,,0.00,0.0,meteohub,2013-01-13 06:03:00,
2013-01-13 01:08:00,63.0,61.9,30.10,SE,136,0.0,0.0,96,0.00,,,0.00,0.0,meteohub,2013-01-13 06:08:00,
2013-01-13 01:13:00,63.0,61.9,30.10,SE,136,0.0,0.0,96,0.00,,,0.00,0.0,meteohub,2013-01-13 06:13:00,
2013-01-13 01:18:00,63.0,61.9,30.10,SE,136,0.0,0.0,96,0.00,,,0.00,0.0,meteohub,2013-01-13 06:18:00,
2013-01-13 01:23:00,62.4,61.3,30.10,SE,136,0.0,0.0,96,0.00,,,0.00,0.0,meteohub,2013-01-13 06:23:00,
2013-01-13 01:28:00,62.2,61.2,30.10,SE,136,0.0,0.0,96,0.00,,,0.00,0.0,meteohub,2013-01-13 06:28:00,
2013-01-13 01:33:00,62.4,61.3,30.10,SE,136,0.0,0.0,96,0.00,,,0.00,0.0,meteohub,2013-01-13 06:33:00,
2013-01-13 01:38:00,62.1,61.0,30.10,SE,136,0.0,1.0,96,0.00,,,0.00,0.0,meteohub,2013-01-13 06:38:00,
2013-01-13 01:43:00,61.9,60.8,30.10,SE,136,0.0,1.0,96,0.00,,,0.00,0.0,meteohub,2013-01-13 06:43:00,
2013-01-13 01:48:00,61.9,60.8,30.10,SE,136,0.0,1.0,96,0.00,,,0.00,0.0,meteohub,2013-01-13 06:48:00,
2013-01-13 01:53:00,61.9,61.0,30.11,SE,136,0.0,1.0,97,0.00,,,0.00,0.0,meteohub,2013-01-13 06:53:00,
2013-01-13 01:58:00,61.9,61.0,30.11,SE,136,0.0,1.0,97,0.00,,,0.00,0.0,meteohub,2013-01-13 06:58:00,
2013-01-13 02:03:00,62.1,61.2,30.11,SE,136,1.0,1.0,97,0.00,,,0.00,0.0,meteohub,2013-01-13 07:03:00,
2013-01-13 02:08:00,62.2,61.3,30.11,SE,136,1.0,1.0,97,0.00,,,0.00,0.0,meteohub,2013-01-13 07:08:00,
2013-01-13 02:13:00,62.1,61.2,30.11,SE,136,0.0,2.0,97,0.00,,,0.00,0.0,meteohub,2013-01-13 07:13:00,
2013-01-13 02:18:00,61.9,61.0,30.11,SE,136,0.0,2.0,97,0.00,,,0.00,0.0,meteohub,2013-01-13 07:18:00,
2013-01-13 02:23:00,62.1,61.2,30.11,SE,136,0.0,2.0,97,0.00,,,0.00,0.0,meteohub,2013-01-13 07:23:00,
2013-01-13 02:28:00,61.5,60.4,30.11,SE,136,0.0,1.0,96,0.00,,,0.00,0.0,meteohub,2013-01-13 07:28:00,
2013-01-13 02:33:00,61.5,60.6,30.11,SE,136,0.0,0.0,97,0.00,,,0.00,0.0,meteohub,2013-01-13 07:33:00,
2013-01-13 02:38:00,61.3,60.4,30.11,SE,136,0.0,0.0,97,0.00,,,0.00,0.0,meteohub,2013-01-13 07:38:00,
2013-01-13 02:43:00,60.6,59.5,30.11,SE,136,0.0,0.0,96,0.00,,,0.00,0.0,meteohub,2013-01-13 07:43:00,
2013-01-13 02:48:00,60.1,59.0,30.10,SE,136,1.0,0.0,96,0.00,,,0.00,0.0,meteohub,2013-01-13 07:48:00,
2013-01-13 02:53:00,60.1,59.0,30.10,SE,136,0.0,2.0,96,0.00,,,0.00,0.0,meteohub,2013-01-13 07:53:00,
2013-01-13 02:58:00,60.1,59.2,30.10,SE,136,0.0,2.0,97,0.00,,,0.00,0.0,meteohub,2013-01-13 07:58:00,
2013-01-13 03:03:00,59.7,58.6,30.10,SE,136,1.0,1.0,96,0.00,,,0.00,0.0,meteohub,2013-01-13 08:03:00,
2013-01-13 03:08:00,59.2,58.1,30.10,SE,136,0.0,1.0,96,0.00,,,0.00,0.0,meteohub,2013-01-13 08:08:00,
2013-01-13 03:13:00,59.2,58.1,30.10,SE,136,0.0,1.0,96,0.00,,,0.00,0.0,meteohub,2013-01-13 08:13:00,
2013-01-13 03:18:00,59.5,58.6,30.09,SE,136,0.0,1.0,97,0.00,,,0.00,0.0,meteohub,2013-01-13 08:18:00,
2013-01-13 03:23:00,60.1,59.5,30.09,SE,136,0.0,1.0,98,0.00,,,0.00,0.0,meteohub,2013-01-13 08:23:00,
2013-01-13 03:29:00,60.4,59.9,30.09,SE,136,0.0,0.0,98,0.00,,,0.00,0.0,meteohub,2013-01-13 08:29:00,
2013-01-13 03:34:00,61.0,60.4,30.09,SE,136,0.0,0.0,98,0.00,,,0.00,0.0,meteohub,2013-01-13 08:34:00,
2013-01-13 03:38:00,61.2,60.6,30.09,SE,136,0.0,0.0,98,0.00,,,0.00,0.0,meteohub,2013-01-13 08:38:00,
2013-01-13 03:44:00,60.8,60.3,30.09,SE,136,0.0,0.0,98,0.00,,,0.00,0.0,meteohub,2013-01-13 08:44:00,
2013-01-13 03:48:00,60.8,60.3,30.08,SE,136,0.0,0.0,98,0.00,,,0.00,0.0,meteohub,2013-01-13 08:48:00,
2013-01-13 03:53:00,60.4,59.9,30.08,SE,136,0.0,0.0,98,0.00,,,0.00,0.0,meteohub,2013-01-13 08:53:00,
2013-01-13 03:58:00,59.9,59.0,30.07,SE,136,0.0,0.0,97,0.00,,,0.00,0.0,meteohub,2013-01-13 08:58:00,
2013-01-13 04:03:00,59.5,58.6,30.07,SE,136,2.0,0.0,97,0.00,,,0.00,0.0,meteohub,2013-01-13 09:03:00,
2013-01-13 04:08:00,60.4,59.9,30.07,SE,136,2.0,2.0,98,0.00,,,0.00,0.0,meteohub,2013-01-13 09:08:00,
2013-01-13 04:13:00,61.2,60.6,30.07,SE,136,2.0,3.0,98,0.00,,,0.00,0.0,meteohub,2013-01-13 09:13:00,
2013-01-13 04:18:00,62.1,61.5,30.07,SE,136,1.0,3.0,98,0.00,,,0.00,0.0,meteohub,2013-01-13 09:18:00,
2013-01-13 04:23:00,62.4,62.1,30.07,SE,136,0.0,3.0,99,0.00,,,0.00,0.0,meteohub,2013-01-13 09:23:00,
2013-01-13 04:28:00,62.1,61.5,30.07,SE,136,0.0,3.0,98,0.00,,,0.00,0.0,meteohub,2013-01-13 09:28:00,
2013-01-13 04:33:00,60.8,59.7,30.07,SE,136,0.0,2.0,96,0.00,,,0.00,0.0,meteohub,2013-01-13 09:33:00,
2013-01-13 04:38:00,60.4,59.4,30.07,SE,136,0.0,2.0,96,0.00,,,0.00,0.0,meteohub,2013-01-13 09:38:00,
2013-01-13 04:43:00,60.6,59.7,30.07,SE,136,0.0,0.0,97,0.00,,,0.00,0.0,meteohub,2013-01-13 09:43:00,
2013-01-13 04:48:00,61.2,60.3,30.07,SE,136,0.0,0.0,97,0.00,,,0.00,0.0,meteohub,2013-01-13 09:48:00,
2013-01-13 04:53:00,61.3,60.4,30.07,SE,136,0.0,0.0,97,0.00,,,0.00,0.0,meteohub,2013-01-13 09:53:00,
2013-01-13 04:58:00,61.3,60.4,30.07,SE,136,0.0,0.0,97,0.00,,,0.00,0.0,meteohub,2013-01-13 09:58:00,
2013-01-13 05:03:00,61.0,60.1,30.07,SE,136,0.0,0.0,97,0.00,,,0.00,0.0,meteohub,2013-01-13 10:03:00,
2013-01-13 05:08:00,61.0,60.1,30.07,SE,136,0.0,0.0,97,0.00,,,0.00,0.0,meteohub,2013-01-13 10:08:00,
2013-01-13 05:13:00,60.4,59.4,30.06,SE,136,0.0,0.0,96,0.00,,,0.00,0.0,meteohub,2013-01-13 10:13:00,
2013-01-13 05:18:00,59.9,58.8,30.07,SE,136,0.0,0.0,96,0.00,,,0.00,0.0,meteohub,2013-01-13 10:18:00,
2013-01-13 05:24:00,59.5,58.5,30.07,SE,136,0.0,0.0,96,0.00,,,0.00,0.0,meteohub,2013-01-13 10:24:00,
2013-01-13 05:29:00,59.9,59.0,30.07,SE,136,0.0,0.0,97,0.00,,,0.00,0.0,meteohub,2013-01-13 10:29:00,
2013-01-13 05:34:00,60.4,59.9,30.07,SE,136,0.0,1.0,98,0.00,,,0.00,0.0,meteohub,2013-01-13 10:34:00,
2013-01-13 05:39:00,61.2,60.6,30.07,SE,136,0.0,1.0,98,0.00,,,0.00,0.0,meteohub,2013-01-13 10:39:00,
2013-01-13 05:44:00,61.3,60.8,30.08,SE,136,0.0,1.0,98,0.00,,,0.00,0.0,meteohub,2013-01-13 10:44:00,
2013-01-13 05:49:00,61.5,61.0,30.08,SE,136,0.0,1.0,98,0.00,,,0.00,0.0,meteohub,2013-01-13 10:49:00,
2013-01-13 05:54:00,61.5,61.0,30.08,SE,136,0.0,1.0,98,0.00,,,0.00,0.0,meteohub,2013-01-13 10:54:00,
2013-01-13 05:59:00,61.5,61.0,30.08,SE,136,0.0,1.0,98,0.00,,,0.00,0.0,meteohub,2013-01-13 10:59:00,
2013-01-13 06:04:00,61.5,61.0,30.08,North,-999,-999.0,1.0,98,0.00,,,0.00,0.0,meteohub,2013-01-13 11:04:00,
2013-01-13 07:41:00,59.5,59.0,30.09,North,-999,-999.0,-999.0,98,-99.99,,,0.00,,meteohub,2013-01-13 12:41:00,
2013-01-13 07:46:00,59.5,59.0,30.10,North,-999,-999.0,-999.0,98,0.00,,,0.00,46.0,meteohub,2013-01-13 12:46:00,
2013-01-13 07:51:00,60.1,59.5,30.09,SSE,150,0.0,0.0,98,0.00,,,0.00,60.0,meteohub,2013-01-13 12:51:00,
2013-01-13 07:56:00,60.1,59.5,30.09,SSE,150,0.0,0.0,98,0.00,,,0.00,77.0,meteohub,2013-01-13 12:56:00,
2013-01-13 08:01:00,61.0,60.4,30.10,SSE,150,0.0,0.0,98,0.00,,,0.00,93.0,meteohub,2013-01-13 13:01:00,
2013-01-13 08:06:00,61.9,61.5,30.10,SSE,150,0.0,0.0,99,0.00,,,0.00,107.0,meteohub,2013-01-13 13:06:00,
2013-01-13 08:11:00,62.4,62.1,30.10,SSE,150,0.0,0.0,99,0.00,,,0.00,118.0,meteohub,2013-01-13 13:11:00,
2013-01-13 08:16:00,63.1,62.8,30.11,SSE,150,1.0,0.0,99,0.00,,,0.00,130.0,meteohub,2013-01-13 13:16:00,
2013-01-13 08:21:00,63.9,63.5,30.11,SSE,150,0.0,1.0,99,0.00,,,0.00,142.0,meteohub,2013-01-13 13:21:00,
2013-01-13 08:26:00,64.9,64.6,30.11,SSE,150,1.0,1.0,99,0.00,,,0.00,162.0,meteohub,2013-01-13 13:26:00,
2013-01-13 08:31:00,65.7,65.3,30.11,SSE,150,2.0,2.0,99,0.00,,,0.00,176.0,meteohub,2013-01-13 13:31:00,
2013-01-13 08:36:00,66.7,66.2,30.11,SSE,150,2.0,3.0,98,0.00,,,0.00,190.0,meteohub,2013-01-13 13:36:00,
2013-01-13 08:41:00,67.6,66.2,30.12,SSE,150,2.0,4.0,95,0.00,,,0.00,202.0,meteohub,2013-01-13 13:41:00,
2013-01-13 08:46:00,68.4,66.9,30.12,SSE,150,2.0,4.0,95,0.00,,,0.00,214.0,meteohub,2013-01-13 13:46:00,
2013-01-13 08:51:00,68.7,66.9,30.12,SSE,151,2.0,4.0,94,0.00,,,0.00,213.0,meteohub,2013-01-13 13:51:00,
2013-01-13 08:57:00,69.3,67.1,30.13,SSE,151,2.0,3.0,93,0.00,,,0.00,244.0,meteohub,2013-01-13 13:57:00,
2013-01-13 09:02:00,69.8,67.3,30.13,SSE,151,1.0,3.0,92,0.00,,,0.00,260.0,meteohub,2013-01-13 14:02:00,
2013-01-13 09:07:00,70.3,67.6,30.13,SSE,151,1.0,3.0,91,0.00,,,0.00,276.0,meteohub,2013-01-13 14:07:00,
2013-01-13 09:12:00,71.1,68.0,30.13,SSE,151,1.0,3.0,90,0.00,,,0.00,290.0,meteohub,2013-01-13 14:12:00,
2013-01-13 09:17:00,71.4,67.6,30.14,South,173,3.0,3.0,88,0.00,,,0.00,309.0,meteohub,2013-01-13 14:17:00,
2013-01-13 09:22:00,72.0,68.2,30.14,South,187,3.0,5.0,88,0.00,,,0.00,329.0,meteohub,2013-01-13 14:22:00,
2013-01-13 09:27:00,72.3,68.2,30.14,South,187,2.0,5.0,87,0.00,,,0.00,339.0,meteohub,2013-01-13 14:27:00,
2013-01-13 09:32:00,72.9,68.0,30.15,South,188,4.0,5.0,85,0.00,,,0.00,360.0,meteohub,2013-01-13 14:32:00,
2013-01-13 09:37:00,73.0,68.2,30.16,SSW,199,5.0,6.0,85,0.00,,,0.00,378.0,meteohub,2013-01-13 14:37:00,
2013-01-13 09:42:00,73.0,68.0,30.16,SSW,198,4.0,6.0,84,0.00,,,0.00,399.0,meteohub,2013-01-13 14:42:00,
2013-01-13 09:47:00,73.4,67.6,30.16,SSW,202,3.0,8.0,82,0.00,,,0.00,411.0,meteohub,2013-01-13 14:47:00,
2013-01-13 09:52:00,73.8,68.0,30.16,SSW,197,6.0,8.0,82,0.00,,,0.00,427.0,meteohub,2013-01-13 14:52:00,
2013-01-13 09:57:00,74.1,68.0,30.17,SSW,211,6.0,7.0,81,0.00,,,0.00,436.0,meteohub,2013-01-13 14:57:00,
2013-01-13 10:02:00,74.3,68.0,30.17,South,189,4.0,9.0,81,0.00,,,0.00,450.0,meteohub,2013-01-13 15:02:00,
2013-01-13 10:07:00,74.3,68.0,30.17,SSW,206,5.0,9.0,81,0.00,,,0.00,466.0,meteohub,2013-01-13 15:07:00,
2013-01-13 10:12:00,74.7,68.0,30.17,South,176,4.0,9.0,80,0.00,,,0.00,483.0,meteohub,2013-01-13 15:12:00,
2013-01-13 10:17:00,75.0,68.0,30.16,South,178,4.0,8.0,79,0.00,,,0.00,508.0,meteohub,2013-01-13 15:17:00,
2013-01-13 10:22:00,75.6,68.5,30.17,SSE,153,6.0,9.0,79,0.00,,,0.00,506.0,meteohub,2013-01-13 15:22:00,
2013-01-13 10:27:00,75.7,68.4,30.17,SSW,211,4.0,9.0,78,0.00,,,0.00,504.0,meteohub,2013-01-13 15:27:00,
2013-01-13 10:32:00,75.9,68.2,30.16,SSW,193,7.0,9.0,77,0.00,,,0.00,540.0,meteohub,2013-01-13 15:32:00,
2013-01-13 10:37:00,75.7,68.0,30.16,SSE,165,4.0,11.0,77,0.00,,,0.00,543.0,meteohub,2013-01-13 15:37:00,
2013-01-13 10:42:00,76.3,68.5,30.16,SSE,158,6.0,11.0,77,0.00,,,0.00,554.0,meteohub,2013-01-13 15:42:00,
2013-01-13 10:47:00,76.3,67.8,30.15,SSE,163,4.0,11.0,75,0.00,,,0.00,466.0,meteohub,2013-01-13 15:47:00,
2013-01-13 10:52:00,76.6,67.6,30.15,South,182,6.0,9.0,74,0.00,,,0.00,573.0,meteohub,2013-01-13 15:52:00,
2013-01-13 10:57:00,76.5,68.4,30.15,South,174,3.0,10.0,76,0.00,,,0.00,584.0,meteohub,2013-01-13 15:57:00,
2013-01-13 11:02:00,76.8,66.7,30.15,South,186,8.0,10.0,71,0.00,,,0.00,605.0,meteohub,2013-01-13 16:02:00,
2013-01-13 11:07:00,77.4,67.3,30.15,SSW,197,8.0,10.0,71,0.00,,,0.00,601.0,meteohub,2013-01-13 16:07:00,
2013-01-13 11:12:00,77.5,66.6,30.15,South,182,5.0,10.0,69,0.00,,,0.00,608.0,meteohub,2013-01-13 16:12:00,
2013-01-13 11:17:00,77.5,66.9,30.15,SSW,192,5.0,10.0,70,0.00,,,0.00,624.0,meteohub,2013-01-13 16:17:00,
2013-01-13 11:22:00,77.5,66.9,30.14,SSE,157,3.0,10.0,70,0.00,,,0.00,691.0,meteohub,2013-01-13 16:22:00,
2013-01-13 11:27:00,78.4,66.9,30.14,SW,222,6.0,9.0,68,0.00,,,0.00,754.0,meteohub,2013-01-13 16:27:00,
2013-01-13 11:32:00,77.4,66.0,30.14,South,180,4.0,10.0,68,0.00,,,0.00,754.0,meteohub,2013-01-13 16:32:00,
2013-01-13 11:37:00,78.1,65.8,30.14,SSW,202,7.0,11.0,66,0.00,,,0.00,710.0,meteohub,2013-01-13 16:37:00,
2013-01-13 11:42:00,78.3,65.1,30.14,SSW,205,2.0,11.0,64,0.00,,,0.00,731.0,meteohub,2013-01-13 16:42:00,
2013-01-13 11:47:00,78.6,66.7,30.13,SSW,204,4.0,11.0,67,0.00,,,0.00,670.0,meteohub,2013-01-13 16:47:00,
2013-01-13 11:52:00,78.6,67.1,30.13,SSE,161,6.0,9.0,68,0.00,,,0.00,701.0,meteohub,2013-01-13 16:52:00,
2013-01-13 11:57:00,79.0,64.8,30.13,SE,142,6.0,8.0,62,0.00,,,0.00,633.0,meteohub,2013-01-13 16:57:00,
2013-01-13 12:02:00,78.6,65.5,30.13,SW,236,6.0,8.0,64,0.00,,,0.00,236.0,meteohub,2013-01-13 17:02:00,
2013-01-13 12:07:00,78.3,65.5,30.13,WSW,240,3.0,10.0,65,0.00,,,0.00,387.0,meteohub,2013-01-13 17:07:00,
2013-01-13 12:12:00,78.4,64.8,30.12,SW,231,9.0,10.0,63,0.00,,,0.00,679.0,meteohub,2013-01-13 17:12:00,
2013-01-13 12:17:00,78.6,64.6,30.12,SW,215,4.0,10.0,62,0.00,,,0.00,657.0,meteohub,2013-01-13 17:17:00,
2013-01-13 12:22:00,78.6,64.6,30.12,SW,217,7.0,9.0,62,0.00,,,0.00,675.0,meteohub,2013-01-13 17:22:00,
2013-01-13 12:27:00,77.9,64.8,30.12,SW,215,4.0,9.0,64,0.00,,,0.00,200.0,meteohub,2013-01-13 17:27:00,
2013-01-13 12:32:00,78.3,64.6,30.11,SSW,194,1.0,9.0,63,0.00,,,0.00,221.0,meteohub,2013-01-13 17:32:00,
2013-01-13 12:37:00,78.6,64.9,30.11,South,190,2.0,9.0,63,0.00,,,0.00,840.0,meteohub,2013-01-13 17:37:00,
2013-01-13 12:42:00,79.0,65.3,30.10,ESE,121,3.0,7.0,63,0.00,,,0.00,737.0,meteohub,2013-01-13 17:42:00,
2013-01-13 12:47:00,79.5,64.9,30.10,SSW,200,6.0,10.0,61,0.00,,,0.00,740.0,meteohub,2013-01-13 17:47:00,
2013-01-13 12:52:00,80.1,64.9,30.10,SSW,198,7.0,10.0,60,0.00,,,0.00,752.0,meteohub,2013-01-13 17:52:00,
2013-01-13 12:57:00,79.7,64.0,30.10,South,183,3.0,10.0,59,0.00,,,0.00,719.0,meteohub,2013-01-13 17:57:00,
2013-01-13 13:02:00,79.5,63.9,30.09,ESE,122,4.0,9.0,59,0.00,,,0.00,626.0,meteohub,2013-01-13 18:02:00,
2013-01-13 13:07:00,79.2,68.2,30.09,SE,124,7.0,8.0,69,0.00,,,0.00,758.0,meteohub,2013-01-13 18:07:00,
2013-01-13 13:12:00,79.3,68.4,30.09,ESE,116,9.0,10.0,69,0.00,,,0.00,752.0,meteohub,2013-01-13 18:12:00,
2013-01-13 13:17:00,79.0,67.1,30.09,East,93,7.0,10.0,67,0.00,,,0.00,680.0,meteohub,2013-01-13 18:17:00,
2013-01-13 13:22:00,78.6,67.6,30.08,ESE,119,9.0,10.0,69,0.00,,,0.00,566.0,meteohub,2013-01-13 18:22:00,
2013-01-13 13:27:00,78.3,66.7,30.08,SE,125,8.0,12.0,68,0.00,,,0.00,236.0,meteohub,2013-01-13 18:27:00,
2013-01-13 13:32:00,77.7,67.1,30.08,ESE,116,5.0,12.0,70,0.00,,,0.00,236.0,meteohub,2013-01-13 18:32:00,
2013-01-13 13:37:00,77.2,67.1,30.08,East,94,8.0,11.0,71,0.00,,,0.00,192.0,meteohub,2013-01-13 18:37:00,
2013-01-13 13:42:00,77.0,67.6,30.07,ESE,107,9.0,11.0,73,0.00,,,0.00,230.0,meteohub,2013-01-13 18:42:00,
2013-01-13 13:47:00,76.8,66.7,30.07,East,94,13.0,13.0,71,0.00,,,0.00,265.0,meteohub,2013-01-13 18:47:00,
2013-01-13 13:52:00,77.2,67.8,30.07,ESE,111,11.0,14.0,73,0.00,,,0.00,513.0,meteohub,2013-01-13 18:52:00,
2013-01-13 13:57:00,77.5,67.5,30.07,ESE,114,12.0,14.0,71,0.00,,,0.00,548.0,meteohub,2013-01-13 18:57:00,
2013-01-13 14:02:00,77.7,66.7,30.07,SE,125,13.0,14.0,69,0.00,,,0.00,612.0,meteohub,2013-01-13 19:02:00,
2013-01-13 14:07:00,78.3,67.6,30.07,ESE,107,11.0,14.0,70,0.00,,,0.00,570.0,meteohub,2013-01-13 19:07:00,
2013-01-13 14:12:00,77.5,67.8,30.07,ESE,121,11.0,15.0,72,0.00,,,0.00,200.0,meteohub,2013-01-13 19:12:00,
2013-01-13 14:17:00,76.8,67.5,30.07,SE,142,12.0,16.0,73,0.00,,,0.00,661.0,meteohub,2013-01-13 19:17:00,
2013-01-13 14:22:00,77.5,67.5,30.07,SE,124,9.0,17.0,71,0.00,,,0.00,643.0,meteohub,2013-01-13 19:22:00,
2013-01-13 14:27:00,78.1,67.1,30.07,East,96,11.0,17.0,69,0.00,,,0.00,573.0,meteohub,2013-01-13 19:27:00,
2013-01-13 14:32:00,77.7,67.1,30.07,ESE,103,12.0,17.0,70,0.00,,,0.00,496.0,meteohub,2013-01-13 19:32:00,
2013-01-13 14:37:00,77.5,67.5,30.07,ESE,107,10.0,16.0,71,0.00,,,0.00,376.0,meteohub,2013-01-13 19:37:00,
2013-01-13 14:42:00,77.2,67.5,30.08,SE,125,8.0,15.0,72,0.00,,,0.00,383.0,meteohub,2013-01-13 19:42:00,
2013-01-13 14:47:00,77.0,66.9,30.08,ESE,116,7.0,15.0,71,0.00,,,0.00,186.0,meteohub,2013-01-13 19:47:00,
2013-01-13 14:52:00,77.0,67.3,30.08,ESE,107,11.0,15.0,72,0.00,,,0.00,376.0,meteohub,2013-01-13 19:52:00,
2013-01-13 14:57:00,77.2,67.5,30.08,ESE,115,10.0,13.0,72,0.00,,,0.00,380.0,meteohub,2013-01-13 19:57:00,
2013-01-13 15:02:00,76.8,66.7,30.08,ESE,103,11.0,15.0,71,0.00,,,0.00,287.0,meteohub,2013-01-13 20:02:00,
2013-01-13 15:07:00,76.5,66.7,30.08,ESE,107,11.0,15.0,72,0.00,,,0.00,315.0,meteohub,2013-01-13 20:07:00,
2013-01-13 15:12:00,76.5,66.7,30.08,ESE,121,8.0,16.0,72,0.00,,,0.00,329.0,meteohub,2013-01-13 20:12:00,
2013-01-13 15:17:00,76.3,66.2,30.09,SE,131,11.0,16.0,71,0.00,,,0.00,271.0,meteohub,2013-01-13 20:17:00,
2013-01-13 15:22:00,76.3,66.6,30.09,SE,136,8.0,16.0,72,0.00,,,0.00,225.0,meteohub,2013-01-13 20:22:00,
2013-01-13 15:27:00,75.9,65.8,30.09,ESE,104,11.0,14.0,71,0.00,,,0.00,246.0,meteohub,2013-01-13 20:27:00,
2013-01-13 15:32:00,75.9,65.8,30.09,ESE,123,8.0,14.0,71,0.00,,,0.00,272.0,meteohub,2013-01-13 20:32:00,
2013-01-13 15:37:00,75.9,65.5,30.10,ESE,107,11.0,14.0,70,0.00,,,0.00,297.0,meteohub,2013-01-13 20:37:00,
2013-01-13 15:42:00,76.3,65.8,30.09,ESE,113,12.0,14.0,70,0.00,,,0.00,373.0,meteohub,2013-01-13 20:42:00,
2013-01-13 15:47:00,76.5,65.5,30.09,ESE,116,12.0,14.0,69,0.00,,,0.00,223.0,meteohub,2013-01-13 20:47:00,
2013-01-13 15:52:00,75.9,65.5,30.09,ESE,119,13.0,15.0,70,0.00,,,0.00,229.0,meteohub,2013-01-13 20:52:00,
2013-01-13 15:57:00,75.7,65.7,30.10,SE,128,10.0,15.0,71,0.00,,,0.00,188.0,meteohub,2013-01-13 20:57:00,
2013-01-13 16:02:00,75.6,65.5,30.10,ESE,120,10.0,15.0,71,0.00,,,0.00,176.0,meteohub,2013-01-13 21:02:00,
2013-01-13 16:07:00,75.4,65.7,30.10,ESE,113,9.0,14.0,72,0.00,,,0.00,158.0,meteohub,2013-01-13 21:07:00,
2013-01-13 16:12:00,75.2,66.0,30.10,SE,127,8.0,14.0,73,0.00,,,0.00,151.0,meteohub,2013-01-13 21:12:00,
2013-01-13 16:17:00,75.0,65.3,30.10,SE,133,9.0,15.0,72,0.00,,,0.00,139.0,meteohub,2013-01-13 21:17:00,
2013-01-13 16:22:00,74.8,65.1,30.10,SE,131,12.0,15.0,72,0.00,,,0.00,121.0,meteohub,2013-01-13 21:22:00,
2013-01-13 16:27:00,74.7,65.1,30.10,SE,134,10.0,15.0,72,0.00,,,0.00,111.0,meteohub,2013-01-13 21:27:00,
2013-01-13 16:32:00,74.5,65.3,30.10,SE,133,11.0,14.0,73,0.00,,,0.00,100.0,meteohub,2013-01-13 21:32:00,
2013-01-13 16:38:00,74.3,65.1,30.10,ESE,122,16.0,16.0,73,0.00,,,0.00,90.0,meteohub,2013-01-13 21:38:00,
2013-01-13 16:43:00,74.1,64.9,30.11,ESE,123,10.0,16.0,73,0.00,,,0.00,79.0,meteohub,2013-01-13 21:43:00,
2013-01-13 16:48:00,73.9,65.1,30.11,ESE,113,10.0,16.0,74,0.00,,,0.00,72.0,meteohub,2013-01-13 21:48:00,
2013-01-13 16:53:00,73.8,64.9,30.11,SE,140,12.0,16.0,74,0.00,,,0.00,65.0,meteohub,2013-01-13 21:53:00,
2013-01-13 16:58:00,73.8,65.3,30.11,SE,132,8.0,13.0,75,0.00,,,0.00,58.0,meteohub,2013-01-13 21:58:00,
2013-01-13 17:03:00,73.6,65.1,30.11,SE,140,5.0,13.0,75,0.00,,,0.00,53.0,meteohub,2013-01-13 22:03:00,
2013-01-13 17:08:00,73.4,64.9,30.11,SE,130,7.0,13.0,75,0.00,,,0.00,44.0,meteohub,2013-01-13 22:08:00,
2013-01-13 17:13:00,73.2,65.1,30.11,SE,131,8.0,16.0,76,0.00,,,0.00,37.0,meteohub,2013-01-13 22:13:00,
2013-01-13 17:18:00,73.0,65.5,30.11,SE,138,10.0,16.0,77,0.00,,,0.00,28.0,meteohub,2013-01-13 22:18:00,
2013-01-13 17:23:00,73.0,65.5,30.11,SE,129,9.0,16.0,77,0.00,,,0.00,21.0,meteohub,2013-01-13 22:23:00,
2013-01-13 17:28:00,72.9,65.7,30.11,SE,140,8.0,13.0,78,0.00,,,0.00,16.0,meteohub,2013-01-13 22:28:00,
2013-01-13 17:33:00,72.7,65.5,30.11,SE,132,9.0,13.0,78,0.00,,,0.00,12.0,meteohub,2013-01-13 22:33:00,
2013-01-13 17:38:00,72.7,65.5,30.11,SE,140,8.0,13.0,78,0.00,,,0.00,9.0,meteohub,2013-01-13 22:38:00,
2013-01-13 17:43:00,72.3,65.1,30.11,ESE,120,7.0,12.0,78,0.00,,,0.00,0.0,meteohub,2013-01-13 22:43:00,
2013-01-13 17:48:00,72.3,65.5,30.11,ESE,121,8.0,12.0,79,0.00,,,0.00,0.0,meteohub,2013-01-13 22:48:00,
2013-01-13 17:53:00,72.1,65.3,30.11,SE,130,9.0,12.0,79,0.00,,,0.00,0.0,meteohub,2013-01-13 22:53:00,
2013-01-13 17:58:00,72.1,65.3,30.11,ESE,122,8.0,12.0,79,0.00,,,0.00,0.0,meteohub,2013-01-13 22:58:00,
2013-01-13 18:03:00,72.0,65.5,30.10,ESE,119,9.0,12.0,80,0.00,,,0.00,0.0,meteohub,2013-01-13 23:03:00,
2013-01-13 18:08:00,72.0,65.5,30.10,SSE,147,9.0,12.0,80,0.00,,,0.00,0.0,meteohub,2013-01-13 23:08:00,
2013-01-13 18:13:00,71.8,65.3,30.11,SE,133,8.0,12.0,80,0.00,,,0.00,0.0,meteohub,2013-01-13 23:13:00,
2013-01-13 18:18:00,71.8,65.3,30.11,SE,128,7.0,12.0,80,0.00,,,0.00,0.0,meteohub,2013-01-13 23:18:00,
2013-01-13 18:23:00,71.6,65.5,30.11,SE,127,4.0,12.0,81,0.00,,,0.00,0.0,meteohub,2013-01-13 23:23:00,
2013-01-13 18:28:00,71.4,65.3,30.11,SE,126,7.0,12.0,81,0.00,,,0.00,0.0,meteohub,2013-01-13 23:28:00,
2013-01-13 18:33:00,71.4,65.3,30.11,SE,132,5.0,11.0,81,0.00,,,0.00,0.0,meteohub,2013-01-13 23:33:00,
2013-01-13 18:38:00,71.2,65.5,30.11,ESE,120,5.0,10.0,82,0.00,,,0.00,0.0,meteohub,2013-01-13 23:38:00,
2013-01-13 18:43:00,71.2,65.5,30.11,SE,126,5.0,10.0,82,0.00,,,0.00,0.0,meteohub,2013-01-13 23:43:00,
2013-01-13 18:48:00,71.2,65.5,30.10,SE,125,8.0,10.0,82,0.00,,,0.00,0.0,meteohub,2013-01-13 23:48:00,
2013-01-13 18:53:00,71.1,65.3,30.10,SSE,150,7.0,10.0,82,0.00,,,0.00,0.0,meteohub,2013-01-13 23:53:00,
2013-01-13 18:58:00,71.1,65.3,30.10,SE,135,8.0,11.0,82,0.00,,,0.00,0.0,meteohub,2013-01-13 23:58:00,
2013-01-13 19:03:00,71.1,65.3,30.11,SE,137,9.0,11.0,82,0.00,,,0.00,0.0,meteohub,2013-01-14 00:03:00,
2013-01-13 19:08:00,71.1,65.3,30.10,SE,128,7.0,11.0,82,0.00,,,0.00,0.0,meteohub,2013-01-14 00:08:00,
2013-01-13 19:13:00,71.1,65.3,30.11,SE,134,6.0,11.0,82,0.00,,,0.00,0.0,meteohub,2013-01-14 00:13:00,
2013-01-13 19:18:00,70.9,65.1,30.11,SE,125,6.0,11.0,82,0.00,,,0.00,0.0,meteohub,2013-01-14 00:18:00,
2013-01-13 19:23:00,70.9,65.1,30.11,SE,145,7.0,11.0,82,0.00,,,0.00,0.0,meteohub,2013-01-14 00:23:00,
2013-01-13 19:28:00,70.7,64.9,30.11,SE,144,7.0,11.0,82,0.00,,,0.00,0.0,meteohub,2013-01-14 00:28:00,
2013-01-13 19:33:00,70.9,65.1,30.11,SE,125,8.0,11.0,82,0.00,,,0.00,0.0,meteohub,2013-01-14 00:33:00,
2013-01-13 19:38:00,70.7,65.3,30.11,SE,145,5.0,11.0,83,0.00,,,0.00,0.0,meteohub,2013-01-14 00:38:00,
2013-01-13 19:43:00,70.7,65.3,30.10,SE,132,7.0,11.0,83,0.00,,,0.00,0.0,meteohub,2013-01-14 00:43:00,
2013-01-13 19:48:00,70.7,64.9,30.10,SE,129,9.0,10.0,82,0.00,,,0.00,0.0,meteohub,2013-01-14 00:48:00,
2013-01-13 19:53:00,70.7,64.9,30.10,SE,134,7.0,11.0,82,0.00,,,0.00,0.0,meteohub,2013-01-14 00:53:00,
2013-01-13 19:58:00,70.7,64.9,30.10,SE,127,9.0,11.0,82,0.00,,,0.00,0.0,meteohub,2013-01-14 00:58:00,
2013-01-13 20:03:00,70.7,64.9,30.10,SE,144,6.0,11.0,82,0.00,,,0.00,0.0,meteohub,2013-01-14 01:03:00,
2013-01-13 20:08:00,70.5,64.8,30.09,SE,134,6.0,11.0,82,0.00,,,0.00,0.0,meteohub,2013-01-14 01:08:00,
2013-01-13 20:13:00,70.5,64.8,30.09,SE,133,6.0,11.0,82,0.00,,,0.00,0.0,meteohub,2013-01-14 01:13:00,
2013-01-13 20:18:00,70.5,64.8,30.09,SSE,150,4.0,11.0,82,0.00,,,0.00,0.0,meteohub,2013-01-14 01:18:00,
2013-01-13 20:23:00,70.3,64.6,30.09,SE,142,6.0,10.0,82,0.00,,,0.00,0.0,meteohub,2013-01-14 01:23:00,
2013-01-13 20:28:00,70.3,64.9,30.10,SSE,155,5.0,10.0,83,0.00,,,0.00,0.0,meteohub,2013-01-14 01:28:00,
2013-01-13 20:33:00,70.2,64.8,30.10,SSE,153,4.0,10.0,83,0.00,,,0.00,0.0,meteohub,2013-01-14 01:33:00,
2013-01-13 20:38:00,70.0,64.6,30.10,SSE,161,4.0,10.0,83,0.00,,,0.00,0.0,meteohub,2013-01-14 01:38:00,
2013-01-13 20:43:00,69.6,64.2,30.10,SSE,159,4.0,7.0,83,0.00,,,0.00,0.0,meteohub,2013-01-14 01:43:00,
2013-01-13 20:48:00,69.4,64.4,30.09,SSE,153,3.0,7.0,84,0.00,,,0.00,0.0,meteohub,2013-01-14 01:48:00,
2013-01-13 20:53:00,69.3,64.6,30.09,SSE,155,4.0,6.0,85,0.00,,,0.00,0.0,meteohub,2013-01-14 01:53:00,
2013-01-13 20:58:00,68.9,64.2,30.09,SSE,155,4.0,6.0,85,0.00,,,0.00,0.0,meteohub,2013-01-14 01:58:00,
2013-01-13 21:03:00,68.5,64.2,30.09,SSE,155,2.0,5.0,86,0.00,,,0.00,0.0,meteohub,2013-01-14 02:03:00,
2013-01-13 21:08:00,68.4,64.0,30.09,SSE,155,2.0,5.0,86,0.00,,,0.00,0.0,meteohub,2013-01-14 02:08:00,
2013-01-13 21:13:00,67.8,63.9,30.10,SSE,155,2.0,5.0,87,0.00,,,0.00,0.0,meteohub,2013-01-14 02:13:00,
2013-01-13 21:18:00,67.6,64.0,30.10,SSE,155,1.0,4.0,88,0.00,,,0.00,0.0,meteohub,2013-01-14 02:18:00,
2013-01-13 21:23:00,67.5,63.9,30.10,SSE,155,1.0,4.0,88,0.00,,,0.00,0.0,meteohub,2013-01-14 02:23:00,
2013-01-13 21:28:00,67.5,64.0,30.10,SSE,155,1.0,3.0,89,0.00,,,0.00,0.0,meteohub,2013-01-14 02:28:00,
2013-01-13 21:33:00,67.3,63.9,30.10,SSE,155,2.0,3.0,89,0.00,,,0.00,0.0,meteohub,2013-01-14 02:33:00,
2013-01-13 21:38:00,67.3,63.9,30.10,SSE,155,1.0,3.0,89,0.00,,,0.00,0.0,meteohub,2013-01-14 02:38:00,
2013-01-13 21:43:00,67.1,63.7,30.10,SSE,155,1.0,3.0,89,0.00,,,0.00,0.0,meteohub,2013-01-14 02:43:00,
2013-01-13 21:48:00,67.1,64.0,30.11,SSE,156,2.0,2.0,90,0.00,,,0.00,0.0,meteohub,2013-01-14 02:48:00,
2013-01-13 21:53:00,67.1,64.0,30.11,SSE,156,3.0,3.0,90,0.00,,,0.00,0.0,meteohub,2013-01-14 02:53:00,
2013-01-13 21:58:00,66.9,63.9,30.11,SSE,156,1.0,3.0,90,0.00,,,0.00,0.0,meteohub,2013-01-14 02:58:00,
2013-01-13 22:03:00,66.9,64.2,30.11,SSE,156,0.0,3.0,91,0.00,,,0.00,0.0,meteohub,2013-01-14 03:03:00,
2013-01-13 22:08:00,66.9,64.2,30.11,SSE,156,0.0,3.0,91,0.00,,,0.00,0.0,meteohub,2013-01-14 03:08:00,
2013-01-13 22:13:00,66.7,63.7,30.12,SSE,156,0.0,2.0,90,0.00,,,0.00,0.0,meteohub,2013-01-14 03:13:00,
2013-01-13 22:18:00,66.6,63.9,30.12,SSE,156,0.0,2.0,91,0.00,,,0.00,0.0,meteohub,2013-01-14 03:18:00,
2013-01-13 22:23:00,66.2,63.5,30.12,SSE,156,2.0,2.0,91,0.00,,,0.00,0.0,meteohub,2013-01-14 03:23:00,
2013-01-13 22:28:00,65.8,63.1,30.12,SSE,156,1.0,1.0,91,0.00,,,0.00,0.0,meteohub,2013-01-14 03:28:00,
2013-01-13 22:33:00,65.7,63.3,30.12,SSE,156,1.0,2.0,92,0.00,,,0.00,0.0,meteohub,2013-01-14 03:33:00,
2013-01-13 22:38:00,65.5,63.3,30.12,SSE,156,0.0,2.0,93,0.00,,,0.00,0.0,meteohub,2013-01-14 03:38:00,
2013-01-13 22:43:00,65.5,63.3,30.12,SSE,156,0.0,2.0,93,0.00,,,0.00,0.0,meteohub,2013-01-14 03:43:00,
2013-01-13 22:48:00,65.5,63.3,30.13,SSE,156,1.0,1.0,93,0.00,,,0.00,0.0,meteohub,2013-01-14 03:48:00,
2013-01-13 22:53:00,65.5,63.3,30.13,SSE,156,0.0,2.0,93,0.00,,,0.00,0.0,meteohub,2013-01-14 03:53:00,
2013-01-13 22:58:00,65.5,63.3,30.13,SSE,156,0.0,2.0,93,0.00,,,0.00,0.0,meteohub,2013-01-14 03:58:00,
2013-01-13 23:03:00,65.1,63.0,30.13,SSE,156,0.0,2.0,93,0.00,,,0.00,0.0,meteohub,2013-01-14 04:03:00,
2013-01-13 23:08:00,64.9,62.8,30.13,SSE,156,0.0,2.0,93,0.00,,,0.00,0.0,meteohub,2013-01-14 04:08:00,
2013-01-13 23:13:00,64.6,62.2,30.13,SSE,156,1.0,1.0,92,0.00,,,0.00,0.0,meteohub,2013-01-14 04:13:00,
2013-01-13 23:18:00,64.2,62.2,30.13,SSE,156,0.0,1.0,93,0.00,,,0.00,0.0,meteohub,2013-01-14 04:18:00,
2013-01-13 23:23:00,64.0,62.1,30.13,SSE,156,0.0,1.0,93,0.00,,,0.00,0.0,meteohub,2013-01-14 04:23:00,
2013-01-13 23:28:00,63.7,61.7,30.13,SSE,156,0.0,1.0,93,0.00,,,0.00,0.0,meteohub,2013-01-14 04:28:00,
2013-01-13 23:33:00,63.3,61.5,30.14,SSE,156,0.0,1.0,94,0.00,,,0.00,0.0,meteohub,2013-01-14 04:33:00,
2013-01-13 23:38:00,63.1,61.3,30.13,SSE,156,0.0,0.0,94,0.00,,,0.00,0.0,meteohub,2013-01-14 04:38:00,
2013-01-13 23:43:00,63.1,61.3,30.13,SSE,156,2.0,0.0,94,0.00,,,0.00,0.0,meteohub,2013-01-14 04:43:00,
2013-01-13 23:48:00,63.0,61.2,30.13,SSE,156,0.0,2.0,94,0.00,,,0.00,0.0,meteohub,2013-01-14 04:48:00,
2013-01-13 23:53:00,63.0,61.5,30.14,SSE,156,0.0,3.0,95,0.00,,,0.00,0.0,meteohub,2013-01-14 04:53:00,
2013-01-13 23:58:00,62.8,61.0,30.14,SSE,156,0.0,3.0,94,0.00,,,0.00,0.0,meteohub,2013-01-14 04:58:00,